Terug naar catalogus

SL-6 R/B(2)

ActiefHEO
NORAD 12311·ROCKET BODY·🇷🇺 Russia

Gelanceerd Feb 19, 1981 vanaf Plesetsk Cosmodrome

Loading…

Volgende Passages (komende 24 uur)

TLE

VersSource: Space-Track

Epoch: Sep 8, 2026, 07:24 UTC

1 12311U 81016E   26251.30849580 -.00000450  00000-0  00000-0 0  9997
2 12311  71.6827  23.6991 5445914 311.6801  12.9925  2.04672202340519

Volg SL-6 R/B(2) in realtime met AllMySat

Download on the App Store